Time,TemperatureF,DewpointF,PressureIn,WindDirection,WindDirectionDegrees,WindSpeedMPH,WindSpeedGustMPH,Humidity,HourlyPrecipIn,Conditions,Clouds,dailyrainin,SoftwareType,DateUTC
2013-01-23 00:02:00,56.0,19.0,-100.00,NE,49,9.0,11.0,23,-99.99,,,-99.99,,2013-01-23 08:02:00,
2013-01-23 00:12:00,55.0,16.0,-100.00,NE,49,9.0,11.0,21,-99.99,,,-99.99,,2013-01-23 08:12:00,
2013-01-23 00:22:00,55.0,15.0,-100.00,NE,52,9.0,12.0,20,-99.99,,,-99.99,,2013-01-23 08:22:00,
2013-01-23 00:32:00,55.0,14.0,-100.00,NE,51,8.0,11.0,19,-99.99,,,-99.99,,2013-01-23 08:32:00,
2013-01-23 00:42:00,55.0,16.0,-100.00,NE,51,6.0,9.0,21,-99.99,,,-99.99,,2013-01-23 08:42:00,
2013-01-23 00:52:00,58.0,21.0,-100.00,East,80,4.0,5.0,24,-99.99,,,-99.99,,2013-01-23 08:52:00,
2013-01-23 01:02:00,58.0,21.0,-100.00,East,80,4.0,5.0,24,-99.99,,,-99.99,,2013-01-23 09:02:00,
2013-01-23 01:12:00,58.0,21.0,-100.00,East,82,4.0,6.0,24,-99.99,,,-99.99,,2013-01-23 09:12:00,
2013-01-23 01:22:00,58.0,21.0,-100.00,East,80,6.0,7.0,24,-99.99,,,-99.99,,2013-01-23 09:22:00,
2013-01-23 01:32:00,59.0,22.0,-100.00,East,79,6.0,7.0,24,-99.99,,,-99.99,,2013-01-23 09:32:00,
2013-01-23 01:43:00,57.0,22.0,-100.00,NE,50,5.0,7.0,25,-99.99,,,-99.99,,2013-01-23 09:43:00,
2013-01-23 01:52:00,57.0,22.0,-100.00,NE,50,5.0,7.0,25,-99.99,,,-99.99,,2013-01-23 09:52:00,
2013-01-23 02:02:00,55.0,16.0,-100.00,NE,38,9.0,12.0,21,-99.99,,,-99.99,,2013-01-23 10:02:00,
2013-01-23 02:12:00,55.0,14.0,-100.00,NNE,26,8.0,11.0,19,-99.99,,,-99.99,,2013-01-23 10:12:00,
2013-01-23 02:22:00,56.0,16.0,-100.00,NE,34,8.0,10.0,20,-99.99,,,-99.99,,2013-01-23 10:22:00,
2013-01-23 02:32:00,56.0,18.0,-100.00,NE,39,8.0,10.0,22,-99.99,,,-99.99,,2013-01-23 10:32:00,
2013-01-23 02:42:00,56.0,21.0,-100.00,ENE,57,8.0,10.0,25,-99.99,,,-99.99,,2013-01-23 10:42:00,
2013-01-23 02:52:00,58.0,21.0,-100.00,ENE,69,11.0,15.0,24,-99.99,,,-99.99,,2013-01-23 10:52:00,
2013-01-23 03:02:00,58.0,21.0,-100.00,ENE,69,11.0,15.0,24,-99.99,,,-99.99,,2013-01-23 11:02:00,
2013-01-23 03:12:00,58.0,21.0,-100.00,ENE,75,10.0,15.0,24,-99.99,,,-99.99,,2013-01-23 11:12:00,
2013-01-23 03:22:00,58.0,20.0,-100.00,ENE,74,10.0,15.0,23,-99.99,,,-99.99,,2013-01-23 11:22:00,
2013-01-23 03:32:00,58.0,20.0,-100.00,ENE,69,12.0,15.0,23,-99.99,,,-99.99,,2013-01-23 11:32:00,
2013-01-23 03:42:00,58.0,20.0,-100.00,ENE,69,11.0,15.0,23,-99.99,,,-99.99,,2013-01-23 11:42:00,
2013-01-23 03:52:00,58.0,20.0,-100.00,ENE,65,12.0,18.0,23,-99.99,,,-99.99,,2013-01-23 11:52:00,
2013-01-23 04:02:00,58.0,19.0,-100.00,ENE,65,13.0,17.0,22,-99.99,,,-99.99,,2013-01-23 12:02:00,
2013-01-23 04:12:00,58.0,19.0,-100.00,ENE,65,12.0,16.0,22,-99.99,,,-99.99,,2013-01-23 12:12:00,
2013-01-23 04:22:00,58.0,19.0,-100.00,ENE,64,12.0,17.0,22,-99.99,,,-99.99,,2013-01-23 12:22:00,
2013-01-23 04:32:00,58.0,19.0,-100.00,ENE,67,13.0,20.0,22,-99.99,,,-99.99,,2013-01-23 12:32:00,
2013-01-23 04:42:00,58.0,19.0,-100.00,ENE,64,11.0,16.0,22,-99.99,,,-99.99,,2013-01-23 12:42:00,
2013-01-23 04:52:00,58.0,19.0,-100.00,ENE,71,9.0,14.0,22,-99.99,,,-99.99,,2013-01-23 12:52:00,
2013-01-23 05:03:00,58.0,20.0,-100.00,East,83,7.0,12.0,23,-99.99,,,-99.99,,2013-01-23 13:03:00,
2013-01-23 05:12:00,58.0,20.0,-100.00,East,94,6.0,11.0,23,-99.99,,,-99.99,,2013-01-23 13:12:00,
2013-01-23 05:22:00,58.0,20.0,-100.00,East,80,8.0,12.0,23,-99.99,,,-99.99,,2013-01-23 13:22:00,
2013-01-23 05:33:00,60.0,21.0,-100.00,ESE,104,8.0,10.0,22,-99.99,,,-99.99,,2013-01-23 13:33:00,
2013-01-23 05:52:00,59.0,20.0,-100.00,East,96,8.0,13.0,22,-99.99,,,-99.99,,2013-01-23 13:52:00,
2013-01-23 06:02:00,59.0,21.0,-100.00,East,94,8.0,12.0,23,-99.99,,,-99.99,,2013-01-23 14:02:00,
2013-01-23 06:12:00,59.0,21.0,-100.00,East,100,8.0,12.0,23,-99.99,,,-99.99,,2013-01-23 14:12:00,
2013-01-23 06:23:00,59.0,22.0,-100.00,ESE,104,8.0,14.0,24,-99.99,,,-99.99,,2013-01-23 14:23:00,
2013-01-23 06:33:00,60.0,22.0,-100.00,East,97,11.0,17.0,23,-99.99,,,-99.99,,2013-01-23 14:33:00,
2013-01-23 06:42:00,60.0,23.0,-100.00,ESE,102,11.0,15.0,24,-99.99,,,-99.99,,2013-01-23 14:42:00,
2013-01-23 06:53:00,60.0,23.0,-100.00,ESE,104,10.0,14.0,24,-99.99,,,-99.99,,2013-01-23 14:53:00,
2013-01-23 07:02:00,59.0,22.0,-100.00,ESE,106,8.0,12.0,24,-99.99,,,-99.99,,2013-01-23 15:02:00,
2013-01-23 07:12:00,59.0,22.0,-100.00,East,100,11.0,16.0,24,-99.99,,,-99.99,,2013-01-23 15:12:00,
2013-01-23 07:22:00,60.0,24.0,-100.00,ESE,103,10.0,14.0,25,-99.99,,,-99.99,,2013-01-23 15:22:00,
2013-01-23 07:33:00,59.0,23.0,-100.00,ESE,109,7.0,13.0,25,-99.99,,,-99.99,,2013-01-23 15:33:00,
2013-01-23 07:43:00,59.0,23.0,-100.00,ESE,103,8.0,12.0,25,-99.99,,,-99.99,,2013-01-23 15:43:00,
2013-01-23 07:52:00,59.0,24.0,-100.00,ESE,113,7.0,10.0,26,-99.99,,,-99.99,,2013-01-23 15:52:00,
2013-01-23 08:02:00,59.0,24.0,-100.00,ESE,115,7.0,12.0,26,-99.99,,,-99.99,,2013-01-23 16:02:00,
2013-01-23 08:12:00,60.0,24.0,-100.00,ESE,113,8.0,12.0,25,-99.99,,,-99.99,,2013-01-23 16:12:00,
2013-01-23 08:22:00,60.0,25.0,-100.00,ESE,110,10.0,15.0,26,-99.99,,,-99.99,,2013-01-23 16:22:00,
2013-01-23 08:32:00,60.0,24.0,-100.00,ESE,106,11.0,17.0,25,-99.99,,,-99.99,,2013-01-23 16:32:00,
2013-01-23 08:42:00,60.0,24.0,-100.00,ESE,106,11.0,17.0,25,-99.99,,,-99.99,,2013-01-23 16:42:00,
2013-01-23 08:52:00,60.0,24.0,-100.00,ESE,106,11.0,16.0,25,-99.99,,,-99.99,,2013-01-23 16:52:00,
2013-01-23 09:02:00,60.0,25.0,-100.00,ESE,109,10.0,17.0,26,-99.99,,,-99.99,,2013-01-23 17:02:00,
2013-01-23 09:12:00,61.0,25.0,-100.00,ESE,114,10.0,16.0,25,-99.99,,,-99.99,,2013-01-23 17:12:00,
2013-01-23 09:22:00,62.0,26.0,-100.00,ESE,103,13.0,19.0,25,-99.99,,,-99.99,,2013-01-23 17:22:00,
2013-01-23 09:33:00,63.0,26.0,-100.00,ESE,103,13.0,19.0,24,-99.99,,,-99.99,,2013-01-23 17:33:00,
2013-01-23 09:42:00,62.0,26.0,-100.00,ESE,106,14.0,18.0,25,-99.99,,,-99.99,,2013-01-23 17:42:00,
2013-01-23 09:52:00,63.0,28.0,-100.00,ESE,102,13.0,20.0,26,-99.99,,,-99.99,,2013-01-23 17:52:00,
2013-01-23 10:03:00,63.0,28.0,-100.00,ESE,106,13.0,19.0,26,-99.99,,,-99.99,,2013-01-23 18:03:00,
2013-01-23 10:12:00,62.0,27.0,-100.00,ESE,103,14.0,19.0,26,-99.99,,,-99.99,,2013-01-23 18:12:00,
2013-01-23 10:22:00,63.0,29.0,-100.00,ESE,104,14.0,21.0,27,-99.99,,,-99.99,,2013-01-23 18:22:00,
2013-01-23 10:32:00,63.0,29.0,-100.00,ESE,104,12.0,20.0,27,-99.99,,,-99.99,,2013-01-23 18:32:00,
2013-01-23 10:43:00,63.0,28.0,-100.00,ESE,109,11.0,18.0,26,-99.99,,,-99.99,,2013-01-23 18:43:00,
2013-01-23 10:52:00,63.0,27.0,-100.00,ESE,105,10.0,15.0,25,-99.99,,,-99.99,,2013-01-23 18:52:00,
2013-01-23 11:02:00,64.0,27.0,-100.00,ESE,108,10.0,15.0,25,-99.99,,,-99.99,,2013-01-23 19:02:00,
2013-01-23 11:12:00,64.0,27.0,-100.00,East,101,11.0,16.0,25,-99.99,,,-99.99,,2013-01-23 19:12:00,
2013-01-23 11:22:00,65.0,27.0,-100.00,ESE,110,10.0,16.0,24,-99.99,,,-99.99,,2013-01-23 19:22:00,
2013-01-23 11:32:00,65.0,26.0,-100.00,ESE,112,10.0,14.0,23,-99.99,,,-99.99,,2013-01-23 19:32:00,
2013-01-23 11:42:00,65.0,26.0,-100.00,ESE,106,10.0,16.0,23,-99.99,,,-99.99,,2013-01-23 19:42:00,
2013-01-23 11:52:00,65.0,26.0,-100.00,ESE,110,11.0,16.0,23,-99.99,,,-99.99,,2013-01-23 19:52:00,
2013-01-23 12:02:00,65.0,25.0,-100.00,ESE,113,11.0,15.0,22,-99.99,,,-99.99,,2013-01-23 20:02:00,
2013-01-23 12:12:00,65.0,25.0,-100.00,ESE,115,10.0,14.0,22,-99.99,,,-99.99,,2013-01-23 20:12:00,
2013-01-23 12:22:00,65.0,26.0,-100.00,ESE,113,8.0,16.0,23,-99.99,,,-99.99,,2013-01-23 20:22:00,
2013-01-23 12:32:00,65.0,25.0,-100.00,ESE,106,9.0,17.0,22,-99.99,,,-99.99,,2013-01-23 20:32:00,
2013-01-23 12:42:00,65.0,25.0,-100.00,ESE,106,9.0,17.0,22,-99.99,,,-99.99,,2013-01-23 20:42:00,
2013-01-23 12:53:00,65.0,25.0,-100.00,East,100,10.0,16.0,22,-99.99,,,-99.99,,2013-01-23 20:53:00,
2013-01-23 13:02:00,65.0,25.0,-100.00,ESE,116,8.0,13.0,22,-99.99,,,-99.99,,2013-01-23 21:02:00,
2013-01-23 13:12:00,65.0,25.0,-100.00,ESE,103,8.0,13.0,22,-99.99,,,-99.99,,2013-01-23 21:12:00,
2013-01-23 13:22:00,65.0,25.0,-100.00,ESE,109,7.0,12.0,22,-99.99,,,-99.99,,2013-01-23 21:22:00,
2013-01-23 13:33:00,65.0,25.0,-100.00,ESE,109,6.0,10.0,22,-99.99,,,-99.99,,2013-01-23 21:33:00,
2013-01-23 13:42:00,66.0,26.0,-100.00,SSE,154,7.0,11.0,22,-99.99,,,-99.99,,2013-01-23 21:42:00,
2013-01-23 13:52:00,65.0,26.0,-100.00,SSE,155,6.0,10.0,23,-99.99,,,-99.99,,2013-01-23 21:52:00,
2013-01-23 14:02:00,65.0,26.0,-100.00,SE,135,3.0,6.0,23,-99.99,,,-99.99,,2013-01-23 22:02:00,
2013-01-23 14:12:00,65.0,26.0,-100.00,SE,127,5.0,8.0,23,-99.99,,,-99.99,,2013-01-23 22:12:00,
2013-01-23 14:22:00,65.0,27.0,-100.00,South,187,4.0,7.0,24,-99.99,,,-99.99,,2013-01-23 22:22:00,
2013-01-23 14:33:00,64.0,28.0,-100.00,SSW,200,6.0,8.0,26,-99.99,,,-99.99,,2013-01-23 22:33:00,
2013-01-23 14:42:00,65.0,31.0,-100.00,SW,216,8.0,11.0,28,-99.99,,,-99.99,,2013-01-23 22:42:00,
2013-01-23 14:52:00,64.0,30.0,-100.00,SW,231,9.0,12.0,28,-99.99,,,-99.99,,2013-01-23 22:52:00,
2013-01-23 15:02:00,63.0,30.0,-100.00,SW,222,8.0,11.0,29,-99.99,,,-99.99,,2013-01-23 23:02:00,
2013-01-23 15:12:00,64.0,31.0,-100.00,SW,224,7.0,9.0,29,-99.99,,,-99.99,,2013-01-23 23:12:00,
2013-01-23 15:22:00,64.0,31.0,-100.00,SSW,205,8.0,12.0,29,-99.99,,,-99.99,,2013-01-23 23:22:00,
2013-01-23 15:33:00,63.0,31.0,-100.00,SW,224,8.0,11.0,30,-99.99,,,-99.99,,2013-01-23 23:33:00,
2013-01-23 15:42:00,63.0,31.0,-100.00,SW,219,9.0,13.0,30,-99.99,,,-99.99,,2013-01-23 23:42:00,
2013-01-23 15:52:00,63.0,32.0,-100.00,SW,217,9.0,14.0,31,-99.99,,,-99.99,,2013-01-23 23:52:00,
2013-01-23 16:02:00,62.0,31.0,-100.00,SW,226,9.0,16.0,31,-99.99,,,-99.99,,2013-01-24 00:02:00,
2013-01-23 16:12:00,61.0,30.0,-100.00,SW,228,10.0,15.0,31,-99.99,,,-99.99,,2013-01-24 00:12:00,
2013-01-23 16:22:00,61.0,29.0,-100.00,SW,235,8.0,12.0,30,-99.99,,,-99.99,,2013-01-24 00:22:00,
2013-01-23 16:32:00,60.0,28.0,-100.00,SW,223,7.0,11.0,30,-99.99,,,-99.99,,2013-01-24 00:32:00,
2013-01-23 16:42:00,60.0,29.0,-100.00,SW,223,6.0,9.0,31,-99.99,,,-99.99,,2013-01-24 00:42:00,
2013-01-23 16:52:00,60.0,29.0,-100.00,SW,221,7.0,10.0,31,-99.99,,,-99.99,,2013-01-24 00:52:00,
2013-01-23 17:02:00,59.0,28.0,-100.00,SW,215,5.0,8.0,31,-99.99,,,-99.99,,2013-01-24 01:02:00,
2013-01-23 17:12:00,59.0,29.0,-100.00,SW,226,6.0,9.0,32,-99.99,,,-99.99,,2013-01-24 01:12:00,
2013-01-23 17:22:00,58.0,29.0,-100.00,WSW,251,5.0,7.0,33,-99.99,,,-99.99,,2013-01-24 01:22:00,
2013-01-23 17:32:00,58.0,30.0,-100.00,WSW,241,6.0,9.0,34,-99.99,,,-99.99,,2013-01-24 01:32:00,
2013-01-23 17:42:00,57.0,28.0,-100.00,WSW,244,7.0,9.0,33,-99.99,,,-99.99,,2013-01-24 01:42:00,
2013-01-23 17:52:00,57.0,28.0,-100.00,SW,236,6.0,9.0,33,-99.99,,,-99.99,,2013-01-24 01:52:00,
2013-01-23 18:02:00,57.0,28.0,-100.00,WSW,238,5.0,7.0,33,-99.99,,,-99.99,,2013-01-24 02:02:00,
2013-01-23 18:12:00,57.0,28.0,-100.00,WSW,244,5.0,7.0,33,-99.99,,,-99.99,,2013-01-24 02:12:00,
2013-01-23 18:22:00,57.0,28.0,-100.00,WSW,241,5.0,6.0,33,-99.99,,,-99.99,,2013-01-24 02:22:00,
2013-01-23 18:32:00,57.0,27.0,-100.00,WSW,245,4.0,6.0,32,-99.99,,,-99.99,,2013-01-24 02:32:00,
2013-01-23 18:42:00,57.0,27.0,-100.00,WSW,245,4.0,6.0,32,-99.99,,,-99.99,,2013-01-24 02:42:00,
2013-01-23 18:52:00,57.0,27.0,-100.00,WSW,245,4.0,6.0,32,-99.99,,,-99.99,,2013-01-24 02:52:00,
2013-01-23 19:02:00,56.0,27.0,-100.00,SW,236,5.0,8.0,32,-99.99,,,-99.99,,2013-01-24 03:02:00,
2013-01-23 19:12:00,56.0,27.0,-100.00,SW,220,4.0,6.0,32,-99.99,,,-99.99,,2013-01-24 03:12:00,
2013-01-23 19:22:00,56.0,27.0,-100.00,SSW,212,5.0,6.0,33,-99.99,,,-99.99,,2013-01-24 03:22:00,
2013-01-23 19:32:00,55.0,26.0,-100.00,WSW,258,4.0,5.0,33,-99.99,,,-99.99,,2013-01-24 03:32:00,
2013-01-23 19:42:00,55.0,26.0,-100.00,West,278,4.0,6.0,33,-99.99,,,-99.99,,2013-01-24 03:42:00,
2013-01-23 19:52:00,55.0,26.0,-100.00,West,261,2.0,5.0,32,-99.99,,,-99.99,,2013-01-24 03:52:00,
2013-01-23 20:02:00,56.0,27.0,-100.00,West,278,3.0,5.0,32,-99.99,,,-99.99,,2013-01-24 04:02:00,
2013-01-23 20:12:00,56.0,26.0,-100.00,WSW,256,5.0,6.0,31,-99.99,,,-99.99,,2013-01-24 04:12:00,
2013-01-23 20:22:00,55.0,26.0,-100.00,WSW,254,5.0,9.0,32,-99.99,,,-99.99,,2013-01-24 04:22:00,
2013-01-23 20:32:00,54.0,25.0,-100.00,WSW,252,6.0,8.0,32,-99.99,,,-99.99,,2013-01-24 04:32:00,
2013-01-23 20:42:00,54.0,25.0,-100.00,West,259,5.0,7.0,32,-99.99,,,-99.99,,2013-01-24 04:42:00,
2013-01-23 20:52:00,54.0,25.0,-100.00,West,264,5.0,5.0,32,-99.99,,,-99.99,,2013-01-24 04:52:00,
2013-01-23 21:03:00,55.0,25.0,-100.00,West,267,3.0,4.0,31,-99.99,,,-99.99,,2013-01-24 05:03:00,
2013-01-23 21:12:00,55.0,25.0,-100.00,WNW,301,2.0,4.0,31,-99.99,,,-99.99,,2013-01-24 05:12:00,
2013-01-23 21:22:00,55.0,24.0,-100.00,NNW,341,2.0,3.0,30,-99.99,,,-99.99,,2013-01-24 05:22:00,
2013-01-23 21:32:00,55.0,24.0,-100.00,NE,41,1.0,3.0,30,-99.99,,,-99.99,,2013-01-24 05:32:00,
2013-01-23 21:42:00,55.0,25.0,-100.00,NE,34,2.0,3.0,31,-99.99,,,-99.99,,2013-01-24 05:42:00,
2013-01-23 21:52:00,55.0,25.0,-100.00,East,85,2.0,4.0,31,-99.99,,,-99.99,,2013-01-24 05:52:00,
2013-01-23 22:02:00,55.0,25.0,-100.00,SSE,153,2.0,5.0,31,-99.99,,,-99.99,,2013-01-24 06:02:00,
2013-01-23 22:12:00,55.0,26.0,-100.00,SE,138,3.0,7.0,33,-99.99,,,-99.99,,2013-01-24 06:12:00,
2013-01-23 22:22:00,55.0,26.0,-100.00,East,79,2.0,4.0,33,-99.99,,,-99.99,,2013-01-24 06:22:00,
2013-01-23 22:32:00,55.0,27.0,-100.00,NNE,23,2.0,5.0,34,-99.99,,,-99.99,,2013-01-24 06:32:00,
2013-01-23 22:42:00,55.0,29.0,-100.00,South,191,4.0,8.0,36,-99.99,,,-99.99,,2013-01-24 06:42:00,
2013-01-23 22:52:00,55.0,28.0,-100.00,South,190,5.0,9.0,35,-99.99,,,-99.99,,2013-01-24 06:52:00,
2013-01-23 23:02:00,54.0,28.0,-100.00,South,179,2.0,5.0,36,-99.99,,,-99.99,,2013-01-24 07:02:00,
2013-01-23 23:12:00,55.0,29.0,-100.00,SW,217,3.0,4.0,36,-99.99,,,-99.99,,2013-01-24 07:12:00,
2013-01-23 23:22:00,54.0,28.0,-100.00,SSW,213,5.0,9.0,37,-99.99,,,-99.99,,2013-01-24 07:22:00,
2013-01-23 23:32:00,54.0,28.0,-100.00,SSW,202,5.0,8.0,36,-99.99,,,-99.99,,2013-01-24 07:32:00,
2013-01-23 23:42:00,54.0,28.0,-100.00,SSW,192,4.0,6.0,36,-99.99,,,-99.99,,2013-01-24 07:42:00,
2013-01-23 23:52:00,54.0,28.0,-100.00,SSW,200,4.0,6.0,37,-99.99,,,-99.99,,2013-01-24 07:52:00,